When you browse on this site, cookies collect data to enhance your experience and personalize the content and advertising you see.
Visit our Privacy Policy to learn more. By continuing to use the site, you agree to this use of cookies and data.
  • Em Portugal
  • Lista de países
  • Para 7 dias
  • Temperatura da água
  • Mapas de satélite
  • Mapa do tempo
  • Widgets de tempo
  • user-avatar
    Iniciar Sessão

    Previsão horária em Sucre

    Hoje, 22 Janeiro, Terça-feira

    Tempo Temperatura Precipitação Vento Pressão Humidade
    00:00 +15°C° 0 mm 1 m/s 544 mmHg 70%
    01:00 +15°C° 0 mm 1 m/s 543 mmHg 73%
    02:00 +14°C° 0 mm 1 m/s 543 mmHg 77%
    03:00 +14°C° 0 mm 1 m/s 543 mmHg 80%
    04:00 +13°C° 0 mm 1 m/s 543 mmHg 83%
    05:00 +12°C° 0 mm 0 m/s 542 mmHg 86%
    06:00 +13°C° 0 mm 0 m/s 543 mmHg 80%
    07:00 +14°C° 0 mm 0 m/s 543 mmHg 75%
    08:00 +15°C° 0 mm 0 m/s 544 mmHg 69%
    09:00 +19°C° 0 mm 1 m/s 545 mmHg 60%
    10:00 +19°C° 0 mm 2 m/s 545 mmHg 51%
    11:00 +21°C° 0 mm 2 m/s 546 mmHg 42%
    12:00 +22°C° 0 mm 3 m/s 546 mmHg 38%
    13:00 +23°C° 0 mm 4 m/s 546 mmHg 35%
    14:00 +25°C° 0 mm 5 m/s 546 mmHg 32%
    15:00 +25°C° 0 mm 5 m/s 545 mmHg 33%
    16:00 +23°C° 0 mm 6 m/s 545 mmHg 34%
    17:00 +23°C° 0 mm 6 m/s 544 mmHg 35%
    18:00 +22°C° 0 mm 5 m/s 544 mmHg 42%
    19:00 +20°C° 0 mm 4 m/s 544 mmHg 49%
    20:00 +18°C° 0 mm 3 m/s 544 mmHg 56%
    21:00 +18°C° 0 mm 2 m/s 544 mmHg 61%
    22:00 +18°C° 0 mm 1 m/s 544 mmHg 66%
    23:00 +16°C° 0 mm 1 m/s 544 mmHg 70%

    Amanhã, 23 Janeiro, Quarta-feira

    Tempo Temperatura Precipitação Vento Pressão Humidade
    00:00 +16°C° 0 mm 1 m/s 544 mmHg 73%
    01:00 +15°C° 0 mm 1 m/s 543 mmHg 76%
    02:00 +15°C° 0 mm 1 m/s 542 mmHg 79%
    03:00 +13°C° 0 mm 0 m/s 542 mmHg 80%
    04:00 +13°C° 0 mm 0 m/s 542 mmHg 82%
    05:00 +12°C° 0 mm 0 m/s 541 mmHg 84%
    06:00 +14°C° 0 mm 0 m/s 543 mmHg 77%
    07:00 +15°C° 0 mm 0 m/s 544 mmHg 71%
    08:00 +16°C° 0 mm 0 m/s 545 mmHg 64%
    09:00 +20°C° 0 mm 1 m/s 545 mmHg 56%
    10:00 +20°C° 0 mm 2 m/s 546 mmHg 47%
    11:00 +22°C° 0 mm 3 m/s 547 mmHg 39%
    12:00 +24°C° 0 mm 3 m/s 547 mmHg 37%
    13:00 +25°C° 0 mm 4 m/s 547 mmHg 34%
    14:00 +26°C° 0 mm 5 m/s 546 mmHg 32%
    15:00 +24°C° 0 mm 6 m/s 546 mmHg 33%
    16:00 +24°C° 0 mm 6 m/s 545 mmHg 33%
    17:00 +24°C° 0 mm 6 m/s 545 mmHg 34%
    18:00 +22°C° 0 mm 5 m/s 545 mmHg 41%
    19:00 +20°C° 0 mm 4 m/s 545 mmHg 47%
    20:00 +19°C° 0 mm 3 m/s 544 mmHg 54%
    21:00 +18°C° 0 mm 2 m/s 545 mmHg 58%
    22:00 +18°C° 0 mm 1 m/s 545 mmHg 62%
    23:00 +18°C° 0 mm 1 m/s 545 mmHg 67%

    Depois de amanhã, 24 Janeiro, Quinta-feira

    Tempo Temperatura Precipitação Vento Pressão Humidade
    00:00 +16°C° 0 mm 1 m/s 544 mmHg 70%
    01:00 +15°C° 0 mm 0 m/s 544 mmHg 73%
    02:00 +14°C° 0 mm 0 m/s 543 mmHg 76%
    03:00 +14°C° 0 mm 0 m/s 543 mmHg 78%
    04:00 +13°C° 0 mm 0 m/s 543 mmHg 79%
    05:00 +13°C° 0 mm 0 m/s 542 mmHg 81%
    06:00 +14°C° 0 mm 0 m/s 543 mmHg 75%
    07:00 +15°C° 0 mm 0 m/s 544 mmHg 68%
    08:00 +16°C° 0 mm 0 m/s 545 mmHg 62%
    09:00 +19°C° 0 mm 1 m/s 546 mmHg 54%
    10:00 +20°C° 0 mm 2 m/s 546 mmHg 47%
    11:00 +21°C° 0 mm 2 m/s 547 mmHg 40%
    12:00 +22°C° 0 mm 3 m/s 547 mmHg 37%
    13:00 +23°C° 0 mm 4 m/s 546 mmHg 33%
    14:00 +25°C° 0 mm 4 m/s 546 mmHg 30%
    15:00 +25°C° 0 mm 5 m/s 546 mmHg 30%
    16:00 +25°C° 0 mm 5 m/s 546 mmHg 29%
    17:00 +25°C° 0 mm 5 m/s 545 mmHg 28%
    18:00 +23°C° 0 mm 4 m/s 545 mmHg 34%
    19:00 +21°C° 0 mm 4 m/s 545 mmHg 39%
    20:00 +20°C° 0 mm 3 m/s 544 mmHg 45%
    21:00 +19°C° 0 mm 2 m/s 544 mmHg 50%
    22:00 +18°C° 0 mm 2 m/s 545 mmHg 55%
    23:00 +18°C° 0 mm 1 m/s 545 mmHg 61%

    25 Janeiro, Sexta-feira

    Tempo Temperatura Precipitação Vento Pressão Humidade
    00:00 +16°C° 0 mm 1 m/s 544 mmHg 64%
    01:00 +16°C° 0 mm 1 m/s 543 mmHg 68%
    02:00 +15°C° 0 mm 1 m/s 543 mmHg 72%
    03:00 +14°C° 0 mm 0 m/s 542 mmHg 75%
    04:00 +13°C° 0 mm 0 m/s 542 mmHg 78%
    05:00 +13°C° 0 mm 0 m/s 542 mmHg 80%
    06:00 +14°C° 0 mm 0 m/s 543 mmHg 74%
    07:00 +15°C° 0 mm 0 m/s 543 mmHg 68%
    08:00 +16°C° 0 mm 0 m/s 544 mmHg 62%
    09:00 +20°C° 0 mm 1 m/s 545 mmHg 53%
    10:00 +22°C° 0 mm 1 m/s 545 mmHg 43%
    11:00 +23°C° 0 mm 2 m/s 546 mmHg 34%
    12:00 +25°C° 0 mm 3 m/s 546 mmHg 30%
    13:00 +26°C° 0 mm 3 m/s 545 mmHg 27%
    14:00 +27°C° 0 mm 4 m/s 545 mmHg 23%
    15:00 +27°C° 0 mm 4 m/s 545 mmHg 23%
    16:00 +27°C° 0 mm 4 m/s 544 mmHg 23%
    17:00 +27°C° 0 mm 5 m/s 544 mmHg 22%
    18:00 +25°C° 0 mm 4 m/s 544 mmHg 30%
    19:00 +22°C° 0 mm 4 m/s 543 mmHg 38%
    20:00 +20°C° 0 mm 4 m/s 543 mmHg 46%
    21:00 +19°C° 0.1 mm 3 m/s 543 mmHg 52%
    22:00 +18°C° 0.1 mm 2 m/s 543 mmHg 58%
    23:00 +18°C° 0.1 mm 1 m/s 544 mmHg 64%

    26 Janeiro, Sábado

    Tempo Temperatura Precipitação Vento Pressão Humidade
    00:00 +18°C° 0 mm 1 m/s 543 mmHg 68%
    01:00 +15°C° 0 mm 0 m/s 542 mmHg 71%
    02:00 +15°C° 0 mm 0 m/s 542 mmHg 75%
    03:00 +14°C° 0 mm 0 m/s 542 mmHg 77%
    04:00 +14°C° 0 mm 0 m/s 541 mmHg 79%
    05:00 +13°C° 0 mm 0 m/s 541 mmHg 80%
    06:00 +14°C° 0 mm 0 m/s 542 mmHg 74%
    07:00 +15°C° 0 mm 0 m/s 543 mmHg 68%
    08:00 +16°C° 0 mm 0 m/s 544 mmHg 62%
    09:00 +20°C° 0 mm 1 m/s 544 mmHg 54%
    10:00 +22°C° 0 mm 1 m/s 545 mmHg 45%
    11:00 +23°C° 0 mm 2 m/s 545 mmHg 36%
    12:00 +24°C° 0.1 mm 3 m/s 545 mmHg 36%
    13:00 +25°C° 0.1 mm 4 m/s 545 mmHg 35%
    14:00 +25°C° 0.1 mm 5 m/s 544 mmHg 34%
    15:00 +25°C° 0.1 mm 5 m/s 544 mmHg 35%
    16:00 +24°C° 0.1 mm 6 m/s 544 mmHg 36%
    17:00 +24°C° 0.1 mm 6 m/s 543 mmHg 37%
    18:00 +22°C° 0 mm 5 m/s 543 mmHg 42%
    19:00 +21°C° 0 mm 4 m/s 543 mmHg 47%
    20:00 +19°C° 0 mm 4 m/s 543 mmHg 53%
    21:00 +18°C° 0.2 mm 3 m/s 543 mmHg 59%
    22:00 +17°C° 0.2 mm 2 m/s 543 mmHg 65%
    23:00 +16°C° 0.2 mm 1 m/s 543 mmHg 70%

    27 Janeiro, Domingo

    Tempo Temperatura Precipitação Vento Pressão Humidade
    00:00 +16°C° 0.2 mm 1 m/s 543 mmHg 74%
    01:00 +14°C° 0.2 mm 0 m/s 542 mmHg 77%
    02:00 +14°C° 0.2 mm 0 m/s 542 mmHg 80%
    03:00 +13°C° 0 mm 0 m/s 541 mmHg 81%
    04:00 +13°C° 0 mm 0 m/s 541 mmHg 82%
    05:00 +13°C° 0 mm 0 m/s 541 mmHg 83%
    06:00 +14°C° 0 mm 0 m/s 542 mmHg 75%
    07:00 +15°C° 0 mm 0 m/s 543 mmHg 68%
    08:00 +16°C° 0 mm 0 m/s 544 mmHg 61%
    09:00 +19°C° 0 mm 1 m/s 544 mmHg 53%
    10:00 +21°C° 0 mm 1 m/s 545 mmHg 45%
    11:00 +23°C° 0 mm 2 m/s 545 mmHg 38%
    12:00 +22°C° 0.1 mm 3 m/s 545 mmHg 37%
    13:00 +24°C° 0.1 mm 3 m/s 545 mmHg 36%
    14:00 +25°C° 0.1 mm 4 m/s 544 mmHg 35%
    15:00 +23°C° 0 mm 5 m/s 544 mmHg 37%
    16:00 +23°C° 0 mm 5 m/s 543 mmHg 38%
    17:00 +23°C° 0 mm 6 m/s 543 mmHg 40%
    18:00 +21°C° 0 mm 5 m/s 543 mmHg 44%
    19:00 +20°C° 0 mm 3 m/s 542 mmHg 49%
    20:00 +19°C° 0 mm 2 m/s 542 mmHg 54%
    21:00 +18°C° 0 mm 2 m/s 542 mmHg 58%
    22:00 +17°C° 0 mm 2 m/s 543 mmHg 63%
    23:00 +18°C° 0 mm 1 m/s 543 mmHg 67%
    Mostrar mais